Regional Weather Roundup
Issued by NWS

Home | Current Version | Previous Version | Graphics & Text | Print | Product List | Glossary On
Versions: 1 2 3 4 5 6 7 8 9 10 11 12 13 14 15 16 17 18 19 20 21 22 23 24 25 26 27 28 29 30 31 32 33 34 35 36 37 38 39 40 41 42 43 44 45 46 47 48 49 50
000
ASUS43 KLSX 210607
RWRMO

WEATHER SUMMARY FOR MISSOURI
NATIONAL WEATHER SERVICE SPRINGFIELD MO
1200 AM CST SUN JAN 21 2018

NOTE: "FAIR" INDICATES FEW OR NO CLOUDS BELOW 12,000 FEET WITH NO
       SIGNIFICANT WEATHER AND/OR OBSTRUCTIONS TO VISIBILITY.
       CURRENT SKY AND/OR WEATHER CONDITIONS ARE NOT AVAILABLE FOR
       CHILLICOTHE AND FARMINGTON.

MOZ001>031-035>038-043-044-053-054-210700-
...NORTHERN AND WESTERN MISSOURI...

CITY           SKY/WX    TMP DP  RH WIND       PRES   REMARKS
KANSAS CTY INT PTCLDY    40  39  97 SE7       29.83F
6HR MIN TEMP:  40; 6HR MAX TEMP:  50;

KANSAS C DTWN  CLEAR     42  39  89 E5        29.83F
6HR MIN TEMP:  41; 6HR MAX TEMP:  53;

LEE`S SUMMIT   CLEAR     42  42 100 SE7       29.84F
6HR MIN TEMP:  39; 6HR MAX TEMP:  49;

ST JOSEPH      PTCLDY    36  36 100 MISG      29.84F FOG
6HR MIN TEMP:  32; 6HR MAX TEMP:  48;

CHILLICOTHE      N/A     46  41  82 SE6       29.88S
6HR MIN TEMP:  40; 6HR MAX TEMP:  47;

KIRKSVILLE     CLOUDY    43  42  97 SE6       29.90S
6HR MIN TEMP:  42; 6HR MAX TEMP:  45;


$$
MOZ066>068-077>081-088>096-101>105-210700-
...SOUTHWEST MISSOURI...

CITY           SKY/WX    TMP DP  RH WIND       PRES   REMARKS
SPRINGFIELD    CLEAR     46  45  96 SE9       29.88F
6HR MIN TEMP:  46; 6HR MAX TEMP:  56;

JOPLIN         CLEAR     53  50  89 S12       29.86S
6HR MIN TEMP:  53; 6HR MAX TEMP:  58;


$$
MOZ032>034-039>042-045>050-055>058-069>072-210700-
...CENTRAL MISSOURI...

CITY           SKY/WX    TMP DP  RH WIND       PRES   REMARKS
COLUMBIA       CLEAR     45  43  93 S10       29.90F
6HR MIN TEMP:  44; 6HR MAX TEMP:  51;

JEFFERSON CITY PTCLDY    37  36  96 SE5       29.92S
6HR MIN TEMP:  37; 6HR MAX TEMP:  54;

ROLLA          CLOUDY    51  48  89 S12       29.93S
6HR MIN TEMP:  47; 6HR MAX TEMP:  51;

SEDALIA        PTCLDY    46  45  96 S10       29.88S
6HR MIN TEMP:  42; 6HR MAX TEMP:  52;

WHITEMAN AFB   CLEAR     45  42  88 S8        29.83R
WARRENSBURG    CLEAR     39  37  93 SE5       29.86S
OSAGE BEACH    PTCLDY    46  44  93 S3        29.92S

$$
MOZ051-052-059>065-210700-
...EAST CENTRAL MISSOURI...

CITY           SKY/WX    TMP DP  RH WIND       PRES   REMARKS
ST LOUIS INTL  MOCLDY    39  38  96 SE3       29.97S
6HR MIN TEMP:  37; 6HR MAX TEMP:  48;

SPIRIT OF STL  MOCLDY    33  33 100 CALM      29.95S
6HR MIN TEMP:  31; 6HR MAX TEMP:  46;

ST CHARLES     CLEAR     33  33 100 E10       29.96S WCI  25
6HR MIN TEMP:  32; 6HR MAX TEMP:  42;


$$
MOZ072>076-082>087-097>100-106>115-210700-
...SOUTH CENTRAL AND SOUTHEAST MISSOURI...

CITY           SKY/WX    TMP DP  RH WIND       PRES   REMARKS
CAPE GIRARDEAU CLOUDY    46  44  93 S12       30.03F
6HR MIN TEMP:  41; 6HR MAX TEMP:  47;

FARMINGTON     CLOUDY    50  47  89 S12       29.98S
6HR MIN TEMP:  44; 6HR MAX TEMP:  50;

POPLAR BLUFF   CLOUDY    50  48  93 S7        30.02F
6HR MIN TEMP:  36; 6HR MAX TEMP:  49;

WEST PLAINS    CLOUDY    51  49  92 S6        29.97S
6HR MIN TEMP:  51; 6HR MAX TEMP:  56;


$$



USA.gov is the U.S. government's official web portal to all federal, state and local government web resources and services.